Voltar ao catálogo

FENGYUN 1C DEB

LostSSO
NORAD 32449·DEBRIS·🇨🇳 China

Lançado May 10, 1999 de Taiyuan Satellite Launch Center

Loading…

Próximas Passagens (próximas 24 horas)

TLE

ObsoletoSource: Space-Track

Época: Mar 9, 2011, 16:25 UTC

1 32449U 99025DBM 11068.68469795 +.00003586 +00000-0 +26030-2 0  9992
2 32449 099.2663 030.4816 0346132 208.1092 147.0464 13.72029686185387

Acompanhe FENGYUN 1C DEB em tempo real com AllMySat

Download on the App Store